timestamp,waterbody_station,lease,latitude,longitude,deployment_start_date,deployment_end_date,sensor,depth,mooring,Temperature_degrees Celsius,Dissolved Oxygen_percent saturation
2022-03-16T00:00:00,Little Harbour-Melmerby Beach,,45.650204,-62.525184,2021-06-03,2022-06-19,HOBO-20291467,1.0,fixed,0.467,
2022-03-16T00:00:00,Merigomish Harbour-Olding Island,,45.644008,-62.468235,2021-06-24,2022-05-26,VR2AR-549339,5.0,fixed,-1.5,
2022-03-16T00:15:00,Little Harbour-Melmerby Beach,,45.650204,-62.525184,2021-06-03,2022-06-19,HOBO-20291467,1.0,fixed,0.522,
2022-03-16T00:30:00,Little Harbour-Melmerby Beach,,45.650204,-62.525184,2021-06-03,2022-06-19,HOBO-20291467,1.0,fixed,0.522,
2022-03-16T00:45:00,Little Harbour-Melmerby Beach,,45.650204,-62.525184,2021-06-03,2022-06-19,HOBO-20291467,1.0,fixed,0.301,
2022-03-16T01:00:00,Merigomish Harbour-Olding Island,,45.644008,-62.468235,2021-06-24,2022-05-26,VR2AR-549339,5.0,fixed,-1.5,
2022-03-16T01:00:00,Little Harbour-Melmerby Beach,,45.650204,-62.525184,2021-06-03,2022-06-19,HOBO-20291467,1.0,fixed,0.356,
2022-03-16T01:15:00,Little Harbour-Melmerby Beach,,45.650204,-62.525184,2021-06-03,2022-06-19,HOBO-20291467,1.0,fixed,0.439,
2022-03-16T01:30:00,Little Harbour-Melmerby Beach,,45.650204,-62.525184,2021-06-03,2022-06-19,HOBO-20291467,1.0,fixed,0.522,
2022-03-16T01:45:00,Little Harbour-Melmerby Beach,,45.650204,-62.525184,2021-06-03,2022-06-19,HOBO-20291467,1.0,fixed,0.522,
2022-03-16T02:00:00,Little Harbour-Melmerby Beach,,45.650204,-62.525184,2021-06-03,2022-06-19,HOBO-20291467,1.0,fixed,0.522,
2022-03-16T02:00:00,Merigomish Harbour-Olding Island,,45.644008,-62.468235,2021-06-24,2022-05-26,VR2AR-549339,5.0,fixed,-1.6,
2022-03-16T02:15:00,Little Harbour-Melmerby Beach,,45.650204,-62.525184,2021-06-03,2022-06-19,HOBO-20291467,1.0,fixed,0.577,
2022-03-16T02:30:00,Little Harbour-Melmerby Beach,,45.650204,-62.525184,2021-06-03,2022-06-19,HOBO-20291467,1.0,fixed,0.632,
2022-03-16T02:45:00,Little Harbour-Melmerby Beach,,45.650204,-62.525184,2021-06-03,2022-06-19,HOBO-20291467,1.0,fixed,0.605,
2022-03-16T03:00:00,Little Harbour-Melmerby Beach,,45.650204,-62.525184,2021-06-03,2022-06-19,HOBO-20291467,1.0,fixed,0.522,
2022-03-16T03:00:00,Merigomish Harbour-Olding Island,,45.644008,-62.468235,2021-06-24,2022-05-26,VR2AR-549339,5.0,fixed,-1.5,
2022-03-16T03:15:00,Little Harbour-Melmerby Beach,,45.650204,-62.525184,2021-06-03,2022-06-19,HOBO-20291467,1.0,fixed,0.522,
2022-03-16T03:30:00,Little Harbour-Melmerby Beach,,45.650204,-62.525184,2021-06-03,2022-06-19,HOBO-20291467,1.0,fixed,0.467,
2022-03-16T03:45:00,Little Harbour-Melmerby Beach,,45.650204,-62.525184,2021-06-03,2022-06-19,HOBO-20291467,1.0,fixed,0.439,
2022-03-16T04:00:00,Merigomish Harbour-Olding Island,,45.644008,-62.468235,2021-06-24,2022-05-26,VR2AR-549339,5.0,fixed,-1.3,
2022-03-16T04:00:00,Little Harbour-Melmerby Beach,,45.650204,-62.525184,2021-06-03,2022-06-19,HOBO-20291467,1.0,fixed,0.412,
2022-03-16T04:15:00,Little Harbour-Melmerby Beach,,45.650204,-62.525184,2021-06-03,2022-06-19,HOBO-20291467,1.0,fixed,0.439,
2022-03-16T04:30:00,Little Harbour-Melmerby Beach,,45.650204,-62.525184,2021-06-03,2022-06-19,HOBO-20291467,1.0,fixed,0.356,
2022-03-16T04:45:00,Little Harbour-Melmerby Beach,,45.650204,-62.525184,2021-06-03,2022-06-19,HOBO-20291467,1.0,fixed,0.301,
2022-03-16T05:00:00,Little Harbour-Melmerby Beach,,45.650204,-62.525184,2021-06-03,2022-06-19,HOBO-20291467,1.0,fixed,0.384,
2022-03-16T05:00:00,Merigomish Harbour-Olding Island,,45.644008,-62.468235,2021-06-24,2022-05-26,VR2AR-549339,5.0,fixed,-1.2,
2022-03-16T05:15:00,Little Harbour-Melmerby Beach,,45.650204,-62.525184,2021-06-03,2022-06-19,HOBO-20291467,1.0,fixed,0.356,
2022-03-16T05:30:00,Little Harbour-Melmerby Beach,,45.650204,-62.525184,2021-06-03,2022-06-19,HOBO-20291467,1.0,fixed,0.412,
2022-03-16T05:45:00,Little Harbour-Melmerby Beach,,45.650204,-62.525184,2021-06-03,2022-06-19,HOBO-20291467,1.0,fixed,0.412,
2022-03-16T06:00:00,Little Harbour-Melmerby Beach,,45.650204,-62.525184,2021-06-03,2022-06-19,HOBO-20291467,1.0,fixed,0.495,
2022-03-16T06:00:00,Merigomish Harbour-Olding Island,,45.644008,-62.468235,2021-06-24,2022-05-26,VR2AR-549339,5.0,fixed,-1.2,
2022-03-16T06:15:00,Little Harbour-Melmerby Beach,,45.650204,-62.525184,2021-06-03,2022-06-19,HOBO-20291467,1.0,fixed,0.55,
2022-03-16T06:30:00,Little Harbour-Melmerby Beach,,45.650204,-62.525184,2021-06-03,2022-06-19,HOBO-20291467,1.0,fixed,0.55,
2022-03-16T06:45:00,Little Harbour-Melmerby Beach,,45.650204,-62.525184,2021-06-03,2022-06-19,HOBO-20291467,1.0,fixed,0.577,
2022-03-16T07:00:00,Little Harbour-Melmerby Beach,,45.650204,-62.525184,2021-06-03,2022-06-19,HOBO-20291467,1.0,fixed,0.522,
2022-03-16T07:00:00,Merigomish Harbour-Olding Island,,45.644008,-62.468235,2021-06-24,2022-05-26,VR2AR-549339,5.0,fixed,-1.1,
2022-03-16T07:15:00,Little Harbour-Melmerby Beach,,45.650204,-62.525184,2021-06-03,2022-06-19,HOBO-20291467,1.0,fixed,0.522,
2022-03-16T07:30:00,Little Harbour-Melmerby Beach,,45.650204,-62.525184,2021-06-03,2022-06-19,HOBO-20291467,1.0,fixed,0.467,
2022-03-16T07:45:00,Little Harbour-Melmerby Beach,,45.650204,-62.525184,2021-06-03,2022-06-19,HOBO-20291467,1.0,fixed,0.301,
2022-03-16T08:00:00,Little Harbour-Melmerby Beach,,45.650204,-62.525184,2021-06-03,2022-06-19,HOBO-20291467,1.0,fixed,0.135,
2022-03-16T08:00:00,Merigomish Harbour-Olding Island,,45.644008,-62.468235,2021-06-24,2022-05-26,VR2AR-549339,5.0,fixed,-1.3,
2022-03-16T08:15:00,Little Harbour-Melmerby Beach,,45.650204,-62.525184,2021-06-03,2022-06-19,HOBO-20291467,1.0,fixed,0.107,
2022-03-16T08:30:00,Little Harbour-Melmerby Beach,,45.650204,-62.525184,2021-06-03,2022-06-19,HOBO-20291467,1.0,fixed,0.135,
2022-03-16T08:45:00,Little Harbour-Melmerby Beach,,45.650204,-62.525184,2021-06-03,2022-06-19,HOBO-20291467,1.0,fixed,-0.004,
2022-03-16T09:00:00,Merigomish Harbour-Olding Island,,45.644008,-62.468235,2021-06-24,2022-05-26,VR2AR-549339,5.0,fixed,-1.5,
2022-03-16T09:00:00,Little Harbour-Melmerby Beach,,45.650204,-62.525184,2021-06-03,2022-06-19,HOBO-20291467,1.0,fixed,-0.004,
2022-03-16T09:15:00,Little Harbour-Melmerby Beach,,45.650204,-62.525184,2021-06-03,2022-06-19,HOBO-20291467,1.0,fixed,0.079,
2022-03-16T09:30:00,Little Harbour-Melmerby Beach,,45.650204,-62.525184,2021-06-03,2022-06-19,HOBO-20291467,1.0,fixed,-0.088,
2022-03-16T09:45:00,Little Harbour-Melmerby Beach,,45.650204,-62.525184,2021-06-03,2022-06-19,HOBO-20291467,1.0,fixed,0.024,
2022-03-16T10:00:00,Little Harbour-Melmerby Beach,,45.650204,-62.525184,2021-06-03,2022-06-19,HOBO-20291467,1.0,fixed,0.024,
2022-03-16T10:00:00,Merigomish Harbour-Olding Island,,45.644008,-62.468235,2021-06-24,2022-05-26,VR2AR-549339,5.0,fixed,-1.5,
2022-03-16T10:15:00,Little Harbour-Melmerby Beach,,45.650204,-62.525184,2021-06-03,2022-06-19,HOBO-20291467,1.0,fixed,-0.004,
2022-03-16T10:30:00,Little Harbour-Melmerby Beach,,45.650204,-62.525184,2021-06-03,2022-06-19,HOBO-20291467,1.0,fixed,-0.004,
2022-03-16T10:45:00,Little Harbour-Melmerby Beach,,45.650204,-62.525184,2021-06-03,2022-06-19,HOBO-20291467,1.0,fixed,-0.06,
2022-03-16T11:00:00,Little Harbour-Melmerby Beach,,45.650204,-62.525184,2021-06-03,2022-06-19,HOBO-20291467,1.0,fixed,-0.143,
2022-03-16T11:00:00,Merigomish Harbour-Olding Island,,45.644008,-62.468235,2021-06-24,2022-05-26,VR2AR-549339,5.0,fixed,-1.5,
2022-03-16T11:15:00,Little Harbour-Melmerby Beach,,45.650204,-62.525184,2021-06-03,2022-06-19,HOBO-20291467,1.0,fixed,-0.227,
2022-03-16T11:30:00,Little Harbour-Melmerby Beach,,45.650204,-62.525184,2021-06-03,2022-06-19,HOBO-20291467,1.0,fixed,-0.283,
2022-03-16T11:45:00,Little Harbour-Melmerby Beach,,45.650204,-62.525184,2021-06-03,2022-06-19,HOBO-20291467,1.0,fixed,-0.367,
2022-03-16T12:00:00,Merigomish Harbour-Olding Island,,45.644008,-62.468235,2021-06-24,2022-05-26,VR2AR-549339,5.0,fixed,-1.5,
2022-03-16T12:00:00,Little Harbour-Melmerby Beach,,45.650204,-62.525184,2021-06-03,2022-06-19,HOBO-20291467,1.0,fixed,-0.423,
2022-03-16T12:15:00,Little Harbour-Melmerby Beach,,45.650204,-62.525184,2021-06-03,2022-06-19,HOBO-20291467,1.0,fixed,-0.479,
2022-03-16T12:30:00,Little Harbour-Melmerby Beach,,45.650204,-62.525184,2021-06-03,2022-06-19,HOBO-20291467,1.0,fixed,-0.507,
2022-03-16T12:45:00,Little Harbour-Melmerby Beach,,45.650204,-62.525184,2021-06-03,2022-06-19,HOBO-20291467,1.0,fixed,-0.591,
2022-03-16T13:00:00,Little Harbour-Melmerby Beach,,45.650204,-62.525184,2021-06-03,2022-06-19,HOBO-20291467,1.0,fixed,-0.535,
2022-03-16T13:00:00,Merigomish Harbour-Olding Island,,45.644008,-62.468235,2021-06-24,2022-05-26,VR2AR-549339,5.0,fixed,-1.6,
2022-03-16T13:15:00,Little Harbour-Melmerby Beach,,45.650204,-62.525184,2021-06-03,2022-06-19,HOBO-20291467,1.0,fixed,-0.367,
2022-03-16T13:30:00,Little Harbour-Melmerby Beach,,45.650204,-62.525184,2021-06-03,2022-06-19,HOBO-20291467,1.0,fixed,-0.311,
2022-03-16T13:45:00,Little Harbour-Melmerby Beach,,45.650204,-62.525184,2021-06-03,2022-06-19,HOBO-20291467,1.0,fixed,-0.227,
2022-03-16T14:00:00,Little Harbour-Melmerby Beach,,45.650204,-62.525184,2021-06-03,2022-06-19,HOBO-20291467,1.0,fixed,-0.171,
2022-03-16T14:00:00,Merigomish Harbour-Olding Island,,45.644008,-62.468235,2021-06-24,2022-05-26,VR2AR-549339,5.0,fixed,-1.6,
2022-03-16T14:15:00,Little Harbour-Melmerby Beach,,45.650204,-62.525184,2021-06-03,2022-06-19,HOBO-20291467,1.0,fixed,-0.227,
2022-03-16T14:30:00,Little Harbour-Melmerby Beach,,45.650204,-62.525184,2021-06-03,2022-06-19,HOBO-20291467,1.0,fixed,-0.199,
2022-03-16T14:45:00,Little Harbour-Melmerby Beach,,45.650204,-62.525184,2021-06-03,2022-06-19,HOBO-20291467,1.0,fixed,-0.06,
2022-03-16T15:00:00,Merigomish Harbour-Olding Island,,45.644008,-62.468235,2021-06-24,2022-05-26,VR2AR-549339,5.0,fixed,-1.6,
2022-03-16T15:00:00,Little Harbour-Melmerby Beach,,45.650204,-62.525184,2021-06-03,2022-06-19,HOBO-20291467,1.0,fixed,0.135,
2022-03-16T15:15:00,Little Harbour-Melmerby Beach,,45.650204,-62.525184,2021-06-03,2022-06-19,HOBO-20291467,1.0,fixed,0.246,
2022-03-16T15:30:00,Little Harbour-Melmerby Beach,,45.650204,-62.525184,2021-06-03,2022-06-19,HOBO-20291467,1.0,fixed,0.356,
2022-03-16T15:45:00,Little Harbour-Melmerby Beach,,45.650204,-62.525184,2021-06-03,2022-06-19,HOBO-20291467,1.0,fixed,0.412,
2022-03-16T16:00:00,Little Harbour-Melmerby Beach,,45.650204,-62.525184,2021-06-03,2022-06-19,HOBO-20291467,1.0,fixed,0.412,
2022-03-16T16:00:00,Merigomish Harbour-Olding Island,,45.644008,-62.468235,2021-06-24,2022-05-26,VR2AR-549339,5.0,fixed,-1.6,
2022-03-16T16:15:00,Little Harbour-Melmerby Beach,,45.650204,-62.525184,2021-06-03,2022-06-19,HOBO-20291467,1.0,fixed,0.412,
2022-03-16T16:30:00,Little Harbour-Melmerby Beach,,45.650204,-62.525184,2021-06-03,2022-06-19,HOBO-20291467,1.0,fixed,0.522,
2022-03-16T16:45:00,Little Harbour-Melmerby Beach,,45.650204,-62.525184,2021-06-03,2022-06-19,HOBO-20291467,1.0,fixed,0.605,
2022-03-16T17:00:00,Merigomish Harbour-Olding Island,,45.644008,-62.468235,2021-06-24,2022-05-26,VR2AR-549339,5.0,fixed,-1.6,
2022-03-16T17:00:00,Little Harbour-Melmerby Beach,,45.650204,-62.525184,2021-06-03,2022-06-19,HOBO-20291467,1.0,fixed,0.632,
2022-03-16T17:15:00,Little Harbour-Melmerby Beach,,45.650204,-62.525184,2021-06-03,2022-06-19,HOBO-20291467,1.0,fixed,0.632,
2022-03-16T17:30:00,Little Harbour-Melmerby Beach,,45.650204,-62.525184,2021-06-03,2022-06-19,HOBO-20291467,1.0,fixed,0.577,
2022-03-16T17:45:00,Little Harbour-Melmerby Beach,,45.650204,-62.525184,2021-06-03,2022-06-19,HOBO-20291467,1.0,fixed,0.605,
2022-03-16T18:00:00,Little Harbour-Melmerby Beach,,45.650204,-62.525184,2021-06-03,2022-06-19,HOBO-20291467,1.0,fixed,0.522,
2022-03-16T18:00:00,Merigomish Harbour-Olding Island,,45.644008,-62.468235,2021-06-24,2022-05-26,VR2AR-549339,5.0,fixed,-1.5,
2022-03-16T18:15:00,Little Harbour-Melmerby Beach,,45.650204,-62.525184,2021-06-03,2022-06-19,HOBO-20291467,1.0,fixed,0.577,
2022-03-16T18:30:00,Little Harbour-Melmerby Beach,,45.650204,-62.525184,2021-06-03,2022-06-19,HOBO-20291467,1.0,fixed,0.632,
2022-03-16T18:45:00,Little Harbour-Melmerby Beach,,45.650204,-62.525184,2021-06-03,2022-06-19,HOBO-20291467,1.0,fixed,0.687,
2022-03-16T19:00:00,Little Harbour-Melmerby Beach,,45.650204,-62.525184,2021-06-03,2022-06-19,HOBO-20291467,1.0,fixed,1.071,
2022-03-16T19:00:00,Merigomish Harbour-Olding Island,,45.644008,-62.468235,2021-06-24,2022-05-26,VR2AR-549339,5.0,fixed,-1.6,
2022-03-16T19:15:00,Little Harbour-Melmerby Beach,,45.650204,-62.525184,2021-06-03,2022-06-19,HOBO-20291467,1.0,fixed,1.262,
2022-03-16T19:30:00,Little Harbour-Melmerby Beach,,45.650204,-62.525184,2021-06-03,2022-06-19,HOBO-20291467,1.0,fixed,1.398,
2022-03-16T19:45:00,Little Harbour-Melmerby Beach,,45.650204,-62.525184,2021-06-03,2022-06-19,HOBO-20291467,1.0,fixed,1.208,
2022-03-16T20:00:00,Merigomish Harbour-Olding Island,,45.644008,-62.468235,2021-06-24,2022-05-26,VR2AR-549339,5.0,fixed,-1.6,
2022-03-16T20:00:00,Little Harbour-Melmerby Beach,,45.650204,-62.525184,2021-06-03,2022-06-19,HOBO-20291467,1.0,fixed,1.071,
2022-03-16T20:15:00,Little Harbour-Melmerby Beach,,45.650204,-62.525184,2021-06-03,2022-06-19,HOBO-20291467,1.0,fixed,1.099,
2022-03-16T20:30:00,Little Harbour-Melmerby Beach,,45.650204,-62.525184,2021-06-03,2022-06-19,HOBO-20291467,1.0,fixed,0.934,
2022-03-16T20:45:00,Little Harbour-Melmerby Beach,,45.650204,-62.525184,2021-06-03,2022-06-19,HOBO-20291467,1.0,fixed,1.099,
2022-03-16T21:00:00,Little Harbour-Melmerby Beach,,45.650204,-62.525184,2021-06-03,2022-06-19,HOBO-20291467,1.0,fixed,1.017,
2022-03-16T21:00:00,Merigomish Harbour-Olding Island,,45.644008,-62.468235,2021-06-24,2022-05-26,VR2AR-549339,5.0,fixed,-1.6,
2022-03-16T21:15:00,Little Harbour-Melmerby Beach,,45.650204,-62.525184,2021-06-03,2022-06-19,HOBO-20291467,1.0,fixed,0.907,
2022-03-16T21:30:00,Little Harbour-Melmerby Beach,,45.650204,-62.525184,2021-06-03,2022-06-19,HOBO-20291467,1.0,fixed,1.017,
2022-03-16T21:45:00,Little Harbour-Melmerby Beach,,45.650204,-62.525184,2021-06-03,2022-06-19,HOBO-20291467,1.0,fixed,0.962,
2022-03-16T22:00:00,Little Harbour-Melmerby Beach,,45.650204,-62.525184,2021-06-03,2022-06-19,HOBO-20291467,1.0,fixed,0.77,
2022-03-16T22:00:00,Merigomish Harbour-Olding Island,,45.644008,-62.468235,2021-06-24,2022-05-26,VR2AR-549339,5.0,fixed,-1.7,
2022-03-16T22:15:00,Little Harbour-Melmerby Beach,,45.650204,-62.525184,2021-06-03,2022-06-19,HOBO-20291467,1.0,fixed,0.577,
2022-03-16T22:30:00,Little Harbour-Melmerby Beach,,45.650204,-62.525184,2021-06-03,2022-06-19,HOBO-20291467,1.0,fixed,0.19,
2022-03-16T22:45:00,Little Harbour-Melmerby Beach,,45.650204,-62.525184,2021-06-03,2022-06-19,HOBO-20291467,1.0,fixed,0.218,
2022-03-16T23:00:00,Merigomish Harbour-Olding Island,,45.644008,-62.468235,2021-06-24,2022-05-26,VR2AR-549339,5.0,fixed,-1.6,
2022-03-16T23:00:00,Little Harbour-Melmerby Beach,,45.650204,-62.525184,2021-06-03,2022-06-19,HOBO-20291467,1.0,fixed,0.107,
2022-03-16T23:15:00,Little Harbour-Melmerby Beach,,45.650204,-62.525184,2021-06-03,2022-06-19,HOBO-20291467,1.0,fixed,-0.088,
2022-03-16T23:30:00,Little Harbour-Melmerby Beach,,45.650204,-62.525184,2021-06-03,2022-06-19,HOBO-20291467,1.0,fixed,0.024,
2022-03-16T23:45:00,Little Harbour-Melmerby Beach,,45.650204,-62.525184,2021-06-03,2022-06-19,HOBO-20291467,1.0,fixed,0.384,
